Terminal Aerodrome Forecast
Issued by NWS

Home | Current Version | Previous Version | Text Only | Print | Product List | Glossary On
Versions: 1 2 3 4 5 6 7 8 9 10 11 12 13 14 15 16 17 18 19 20 21 22 23 24 25 26 27 28 29 30 31 32 33 34 35 36 37 38 39 40 41 42 43 44
000
FTUS42 KRAH 280524
TAFINT
TAF
KINT 280524Z 2806/2906 24010KT P6SM SHRA SCT040 OVC080
      TEMPO 2806/2808 28020G30KT 2SM -TSRA BKN025CB
     FM280900 26006KT P6SM BKN150
     FM281400 28011G20KT P6SM SCT050
     FM282300 33007KT P6SM SCT060=

USA.gov is the U.S. government's official web portal to all federal, state and local government web resources and services.